Regional Weather Roundup
Issued by NWS Goodland, KS

Home | Current Version | Previous Version | Text Only | Print | Product List | Glossary Off
Versions: 1 2 3 4 5 6 7 8 9 10 11 12 13 14 15 16 17 18 19 20 21 22 23 24 25 26 27 28 29 30 31 32 33 34 35 36 37 38 39 40 41 42 43 44 45 46 47 48 49 50

000
ASUS43 KGLD 010908
RWRGLD

GOODLAND FORECAST AREA HOURLY WEATHER ROUNDUP
NATIONAL WEATHER SERVICE GOODLAND KS
300 AM MDT TUE SEP 01 2015

...OFFICIAL OBSERVATIONS...

CITY           SKY/WX    TMP DP  RH WIND       PRES   REMARKS
GOODLAND KS    MOCLDY    64  61  90 W7        30.00R
HILL CITY KS   MOCLDY    73  54  51 SW8       29.96R
IMPERIAL NEB   CLOUDY    66  62  87 CALM      29.94F
MCCOOK NEB     TSTM      73  61  65 NW8       29.92R
AKRON CO       PTCLDY    60  56  86 W12       30.04F
BURLINGTON CO  MOCLDY    62  59  90 S6        30.06R
LIMON CO       PTCLDY    54  52  93 CALM      30.11F
$$

...UNOFFICIAL OBSERVATIONS...

CITY           SKY/WX    TMP DP  RH WIND       PRES   REMARKS
COLBY KS       PTCLDY    70  64  83 NW6       29.97R
GOVE KS          N/A     68  32  26 MISG        N/A
LENORA KS        N/A     71  32  23 MISG        N/A
NORTON KS      CLEAR     72  52  49 S9        29.93
SHARON SPRINGS   N/A     68  62  79 W5          N/A
KIT CARSON CO    N/A     64  61  89 MISG        N/A
YUMA CO          N/A     61  58  90 W5          N/A
$$



USA.gov is the U.S. government's official web portal to all federal, state and local government web resources and services.